Regional Weather Roundup
Issued by NWS

Home | Current Version | Previous Version | Text Only | Print | Product List | Glossary On
Versions: 1 2 3 4 5 6 7 8 9 10 11 12 13 14 15 16 17 18 19 20 21 22 23 24 25 26 27 28 29 30 31 32 33 34 35 36 37 38 39 40 41 42 43 44 45 46 47 48 49 50
000
ASUS43 KDTX 240810
RWRMI
MICHIGAN HOURLY REGIONAL WEATHER ROUNDUP
NATIONAL WEATHER SERVICE DETROIT/PONTIAC MI
300 AM EST MON NOV 24 2014

NOTE: "FAIR" INDICATES FEW OR NO CLOUDS BELOW 12,000 FEET WITH NO
SIGNIFICANT WEATHER AND/OR OBSTRUCTION TO VISIBILITY.

MIZ047>049-052>055-059>063-066>070-074>076-081>083-240900-
SOUTHEAST LOWER MICHIGAN

CITY           SKY/WX    TMP DP  RH WIND       PRES   REMARKS
ADRIAN         LGT RAIN  56  54  93 SW25G32   29.07F
ALMA           RAIN      49  49  99 S3        29.01F
ANN ARBOR      LGT RAIN  56  53  90 S16G28    29.06F
BAD AXE        RAIN      50  50 100 S14G20    29.06F
DETROIT CITY   LGT RAIN  56  52  86 S16       29.10F
DETROIT        LGT RAIN  54  52  93 S18       29.09F FOG
FLINT          LGT RAIN  54  51  90 S13       29.04F
GROSSE ILE     CLOUDY    45  43  93 SW10      29.09F
HILLSDALE      LGT RAIN  55  55 100 SW13G21   29.07R
HOWELL         RAIN      53  53  97 S10G20    29.03F

CITY           SKY/WX    TMP DP  RH WIND       PRES   REMARKS
LAMBERTVILLE   LGT RAIN  57  54  88 S16G23    29.10F
LANSING        LGT RAIN  53  51  93 S12       29.02F
LAPEER         NOT AVBL
MASON          RAIN      53  52  95 S8G17     29.02F
MONROE         LGT RAIN  55  54  94 S20G26    29.08F
MT. CLEMENS    LGT RAIN  48  48 100 S15       29.08F
PONTIAC        RAIN      52  50  93 S12G26    29.06F FOG
PORT HOPE        N/A     48  46  93 SE17G26   29.05F
PORT HURON     RAIN      52  52 100 S15G26    29.11F
TRI CITIES     LGT RAIN  52  49  89 S10       29.02F
YPSILANTI      LGT RAIN  59  53  80 S23G29    29.07F
$$
MIZ043>046-050>051-056>058-064>065-071>073-077>080-240900-
SOUTHWEST LOWER MICHIGAN

CITY           SKY/WX    TMP DP  RH WIND       PRES   REMARKS
BATTLE CREEK   LGT RAIN  53  49  86 SW13      29.05S
BENTON HARBOR  LGT RAIN  50  50 100 SW13      29.06R
BIG RAPIDS     MIX PCPN  46  46 100 CALM      29.01F VSB 3/4
COLDWATER      LGT RAIN  55  54  94 SW16G25   29.07R
HOLLAND        LGT RAIN  51  50  96 SW9       29.04S
GRAND RAPIDS   LGT RAIN  49  48  97 SW5       29.03F FOG
KALAMAZOO      LGT RAIN  52  50  93 SW12      29.05S
MARSHALL       LGT RAIN  53  52  96 SW9       29.04R
MUSKEGON       LGT RAIN  49  47  93 S3        29.03F FOG
$$
MIZ016>042-240900-
NORTHERN LOWER MICHIGAN

CITY           SKY/WX    TMP DP  RH WIND       PRES   REMARKS
ALPENA         LGT RAIN  44  42  93 SE9       29.06F FOG
BEAVER ISLAND  LGT RAIN  44  43  98 E8        29.05F
BELLAIRE       LGT SNOW  43  42  95 CALM      29.03F
CADILLAC       RAIN      45  44  98 CALM      29.00F
CHARLEVOIX     RAIN      44  44 100 E7        29.05F
FRANKFORT      RAIN      46  46  97 CALM      29.02F
GAYLORD        LGT RAIN  43  43 100 VRB6      29.02F FOG
GRAYLING       LGT RAIN  48  48 100 E6        29.03F
HARBOR SPRINGS RAIN      43  42  98 NE8       29.03F
HOUGHTON LAKE  LGT RAIN  47  45  93 SE6       29.01F
MANISTEE       CLOUDY    46  45  93 CALM      29.03F
OSCODA         RAIN      45  45 100 SE12G17   29.04F
PELLSTON       RAIN      43  43 100 E8        29.06F FOG
TRAVERSE CITY  LGT RAIN  46  45  96 CALM      29.00F FOG
$$
MIZ007>008-015-240900-
EASTERN UPPER MICHIGAN

CITY           SKY/WX    TMP DP  RH WIND       PRES   REMARKS
KINROSS        CLOUDY    41  41 100 E14       29.10F
MACKINAC ISLAN LGT SNOW  43  43 100 E14G23    29.07F
NEWBERRY       LGT RAIN  40  40 100 NE8       29.08F
S. S. MARIE    RAIN      42  40  92 E8        29.12F FOG
$$
MIZ004>006-011>014-085-240900-
CENTRAL UPPER MICHIGAN

CITY           SKY/WX    TMP DP  RH WIND       PRES   REMARKS
MANISTIQUE     RAIN      42  42 100 NE5       29.06F
ESCANABA       CLOUDY    43  39  87 N3        29.06F
MENOMINEE      CLOUDY    43  41  93 CALM      29.05F
SAWYER-GWINN   LGT RAIN  38  38  97 N5        29.08F VSB 3/4
$$
MIZ001>003-009>011-084-240900-
WESTERN UPPER MICHIGAN

CITY           SKY/WX    TMP DP  RH WIND       PRES   REMARKS
IRON MOUNTAIN  LGT RAIN  36  36 100 NW5       29.06F VSB 3/4
HOUGHTON       FOG       43  41  93 N7        29.09F VSB 3/4
COPPER HARBOR    N/A     41  40  96 E3        29.11F
IRONWOOD       CLOUDY    37  37 100 NW8       29.13F
$$

ABBREVIATIONS USED IN REMARKS
   TC - TEMPERATURE IN CELSIUS
  WCI - WIND CHILL INDEX
   HX - HEAT INDEX
  VSB - VISIBILITY



USA.gov is the U.S. government's official web portal to all federal, state and local government web resources and services.